Wind_Speed
8 8 8 8 8 9 9 10 10 11 11 13 13 12 11 12 12 13 13 13 14 14 14 13 13 12 12 12 12 12 12 12 10 10 9 9 9 7 7 7 6 7 7
8 8 9 9 9 9 9 10 11 11 11 12 14 13 13 13 13 13 12 13 14 13 13 13 13 13 13 13 12 12 12 11 10 9 9 9 8 7 7 7 7 7 7
8 8 8 9 9 10 11 11 11 11 12 12 14 14 14 14 14 13 13 13 13 13 13 13 13 13 13 13 12 12 11 11 10 10 9 8 8 8 7 7 7 6 6
9 8 9 9 9 10 12 12 11 12 12 12 13 14 14 14 13 13 13 14 13 13 13 14 14 13 13 12 12 12 11 11 11 10 9 8 8 8 7 7 6 6 5
8 8 9 9 9 10 11 12 12 12 13 13 13 14 13 14 13 13 13 13 13 13 13 14 14 14 13 12 12 12 11 11 10 9 9 8 8 7 6 6 6 6 5
8 8 9 9 9 10 11 13 13 13 13 13 13 14 14 14 14 14 14 13 13 13 13 14 14 14 13 13 12 12 11 10 9 9 8 8 7 6 6 6 6 6 6
9 8 9 9 9 10 11 12 13 13 13 13 13 13 13 14 15 14 14 14 13 14 14 14 14 13 13 13 12 11 10 9 9 8 8 7 7 6 6 6 6 6 5
9 9 9 9 9 10 10 11 12 12 13 13 13 12 12 13 14 14 14 13 13 14 13 14 14 13 12 11 11 10 10 9 8 8 7 7 6 6 6 6 6 5 5
9 9 9 9 9 9 10 10 11 11 12 12 12 12 12 12 12 13 13 13 13 12 12 12 12 12 11 10 10 9 8 8 8 7 7 6 6 5 5 5 5 4 4
9 9 9 8 9 9 9 9 10 10 11 11 11 11 11 12 12 12 12 12 11 11 11 11 10 10 10 9 8 8 7 7 7 6 6 5 5 4 4 4 3 3 3
9 9 9 8 8 8 8 9 9 9 10 9 9 10 10 10 10 11 11 11 11 10 10 10 10 9 9 8 7 7 6 6 6 5 5 4 3 3 3 3 2 2 2
10 9 8 8 8 7 8 8 8 7 8 8 8 8 8 9 9 9 10 10 10 9 9 9 8 8 7 7 6 6 5 5 5 4 3 3 2 2 2 2 1 1 1
10 9 8 8 8 8 7 7 7 7 7 6 7 7 8 8 7 8 8 8 8 7 7 7 7 7 6 5 5 5 4 4 3 3 2 2 1 2 2 2 1 1 1
10 9 8 8 8 7 7 6 6 6 5 5 6 6 6 6 6 6 7 6 6 5 5 5 5 5 4 4 3 3 3 2 2 1 1 1 1 2 2 2 2 2 3
10 9 9 8 7 7 6 6 6 5 5 4 4 5 5 5 5 5 5 5 5 4 4 4 3 3 3 2 1 1 1 1 0 0 1 1 2 2 3 3 4 4 4
10 9 9 8 7 7 7 6 6 5 5 4 4 4 4 4 4 4 4 4 3 3 3 3 3 2 1 0 0 0 1 1 1 1 1 2 2 3 4 4 5 5 5
10 9 9 8 8 7 7 6 5 5 5 4 4 3 3 3 4 4 3 3 3 3 3 2 2 1 1 1 1 2 2 2 2 2 3 3 4 4 5 6 6 6 6
10 9 9 8 8 8 7 6 6 5 4 4 3 3 2 2 2 3 3 3 3 3 3 3 2 2 3 2 2 3 3 3 3 4 4 5 5 6 7 7 7 6 7
10 10 9 9 9 8 7 6 6 5 4 4 3 2 2 1 1 2 2 2 3 3 3 4 4 4 4 4 4 4 5 5 5 6 6 6 7 8 8 8 8 8 8
10 10 10 9 9 8 7 6 6 5 4 4 3 2 1 1 0 1 2 2 3 3 4 4 4 4 4 5 5 6 6 6 7 8 8 8 8 9 9 9 9 9 10
10 10 10 10 9 9 7 7 6 5 5 3 3 2 2 1 1 1 2 2 3 4 4 5 5 5 5 6 6 6 7 8 8 9 9 10 10 10 10 11 11 12 12
11 11 10 10 10 9 8 7 6 5 5 4 3 3 2 2 2 2 2 3 4 4 5 6 6 6 7 7 7 8 8 9 10 10 10 11 12 12 12 13 13 13 14
11 11 11 11 10 10 8 7 7 6 5 5 4 3 3 2 3 3 4 4 4 5 6 7 7 7 8 9 9 9 9 10 11 11 12 12 13 14 14 15 15 15 15
11 11 11 11 11 10 9 8 8 8 7 6 5 4 4 4 4 4 4 5 6 6 7 8 8 9 9 10 10 11 11 12 13 13 13 14 15 16 16 16 16 16 16
10 10 11 11 11 11 10 9 8 8 7 7 6 5 4 4 4 4 5 6 6 7 7 8 9 9 9 10 10 11 12 13 14 14 15 15 16 16 17 16 16 16 16
9 9 10 10 10 10 10 9 9 9 8 8 7 6 5 5 5 5 6 6 7 7 7 8 9 9 10 11 11 12 12 13 14 15 16 16 16 16 16 16 16 16 17
Wind_Direction
79 80 80 82 88 89 91 94 97 98 100 100 101 100 99 98 101 109 107 110 112 114 115 116 118 118 120 121 123 125 124 121 118 118 117 116 114 114 111 105 105 105 104
79 80 82 86 89 90 91 93 95 94 95 95 100 99 100 100 102 105 108 110 111 112 113 118 119 119 118 118 120 119 121 120 116 116 116 113 113 113 107 101 104 105 105
79 80 82 86 91 91 91 97 95 93 93 96 98 99 100 100 104 107 108 107 108 112 116 117 118 119 116 115 117 118 119 119 117 117 115 114 112 112 109 104 104 104 103
80 79 81 86 92 90 93 98 97 94 96 98 99 99 100 102 102 105 109 112 112 112 112 115 118 120 119 117 116 117 116 117 118 119 118 116 112 110 109 105 105 101 101
80 82 83 86 92 93 95 99 99 98 99 100 102 100 99 101 104 108 116 115 115 114 113 115 118 118 116 114 115 116 114 115 117 118 117 115 112 111 110 108 105 100 103
83 86 87 86 92 93 96 99 99 100 101 102 104 103 101 100 103 113 115 113 114 114 111 114 115 115 112 112 115 114 113 114 116 115 114 114 111 110 111 111 107 105 106
84 87 90 88 89 92 96 97 100 103 104 103 103 104 103 103 106 113 111 112 112 112 110 113 113 111 111 112 114 113 113 114 113 111 114 114 112 111 114 113 110 108 106
86 88 90 91 90 92 96 99 98 101 103 105 106 105 104 102 102 106 110 110 111 111 113 112 109 110 111 111 111 111 113 113 114 111 114 116 115 116 116 114 113 111 107
85 88 89 91 92 92 94 99 100 99 100 102 103 103 102 104 105 107 110 110 109 108 111 112 108 108 106 108 110 112 116 116 114 114 113 115 120 119 118 117 116 115 111
80 84 87 90 93 92 92 92 96 99 97 95 97 100 104 105 106 108 109 110 111 108 109 110 109 108 107 108 111 116 119 117 118 116 115 116 120 125 128 124 123 122 120
79 84 87 88 90 92 93 94 93 96 97 97 98 102 105 107 108 111 112 112 112 111 110 110 109 108 105 105 108 113 118 120 119 118 119 120 125 130 135 132 130 129 129
76 81 84 84 87 90 92 92 94 97 101 102 105 108 111 110 109 114 118 116 114 113 113 110 110 107 103 104 105 110 114 119 123 125 127 131 140 156 162 157 151 142 148
72 76 79 81 83 87 88 88 92 98 102 104 109 115 116 115 114 117 123 122 120 117 113 110 108 105 104 107 104 105 110 122 128 133 136 143 167 194 208 208 217 216 243
69 73 76 78 80 82 81 82 86 93 100 100 107 118 124 123 124 126 126 127 129 127 123 121 115 107 108 104 97 98 101 111 128 136 156 204 234 247 251 241 241 245 254
65 69 73 75 75 75 79 83 84 90 98 100 107 119 129 135 136 141 136 134 134 132 129 127 129 119 110 104 89 83 70 79 123 284 270 274 278 276 278 267 263 255 257
61 63 67 70 68 70 73 82 85 85 92 101 106 112 123 136 144 149 151 152 148 143 139 139 137 128 120 114 23 315 301 293 279 277 291 290 289 294 289 283 277 271 272
57 60 64 67 66 67 67 72 79 81 87 91 99 107 115 129 146 157 164 177 177 174 174 175 176 183 261 272 282 285 283 284 283 280 294 301 291 291 291 286 284 282 280
52 55 57 59 58 61 63 64 69 72 76 77 88 98 109 121 147 174 190 195 198 201 205 217 237 253 267 270 279 281 280 280 284 285 287 290 291 288 288 288 288 285 279
45 46 48 48 50 54 57 58 62 64 62 63 72 82 97 108 156 194 210 218 217 219 228 241 254 267 270 273 281 282 283 285 291 291 289 289 289 286 287 287 285 284 282
43 45 44 44 44 46 52 54 54 54 53 51 51 48 53 36 265 237 249 246 238 237 240 248 261 274 270 275 283 284 283 287 291 290 286 289 294 291 287 284 282 281 280
42 41 40 40 38 39 43 45 45 42 41 37 31 22 8 343 320 284 269 262 255 254 257 261 266 274 274 273 282 283 285 290 292 290 290 291 292 294 291 287 284 282 281
40 39 37 38 38 38 39 37 34 32 28 18 5 358 349 332 317 299 277 268 266 269 273 275 273 277 282 280 283 282 286 287 290 290 290 294 294 291 289 288 286 286 283
39 39 38 38 37 35 34 29 25 21 15 5 354 340 326 315 306 297 287 278 276 278 277 279 277 278 282 283 285 283 285 286 287 289 289 293 296 292 292 291 288 289 286
34 35 37 35 33 32 32 25 24 16 11 5 353 336 317 306 301 294 293 292 283 280 282 283 281 281 284 288 287 287 285 286 287 288 289 290 291 291 290 289 285 286 286
27 28 30 30 29 29 28 26 23 16 10 7 2 349 325 311 306 297 291 289 286 285 286 285 283 283 286 289 289 288 286 285 286 287 288 288 291 292 292 290 286 285 286
18 19 21 22 23 24 23 23 21 17 13 7 1 356 344 326 315 306 296 293 289 288 287 287 287 289 289 289 289 290 289 287 287 287 289 289 291 292 292 292 290 286 286
Height
5881 5880 5879 5879 5878 5877 5877 5876 5876 5875 5875 5874 5874 5874 5874 5874 5873 5873 5874 5874 5875 5876 5877 5878 5879 5880 5881 5882 5883 5884 5885 5886 5887 5887 5888 5889 5889 5889 5890 5890 5890 5890 5890
5882 5881 5880 5880 5879 5878 5878 5877 5877 5877 5876 5876 5875 5875 5875 5875 5875 5875 5876 5876 5877 5878 5879 5880 5881 5882 5882 5883 5884 5886 5887 5887 5888 5889 5890 5890 5891 5891 5891 5891 5891 5891 5891
5883 5882 5881 5881 5881 5880 5879 5878 5878 5878 5878 5877 5877 5877 5877 5877 5877 5877 5877 5878 5879 5880 5881 5882 5883 5883 5884 5885 5886 5887 5888 5889 5890 5891 5891 5892 5892 5892 5892 5892 5893 5893 5893
5884 5884 5883 5883 5882 5881 5880 5880 5880 5880 5879 5879 5879 5879 5879 5879 5879 5879 5879 5880 5881 5882 5883 5883 5884 5885 5886 5887 5888 5889 5890 5890 5891 5892 5893 5893 5893 5894 5894 5894 5894 5894 5894
5886 5886 5885 5884 5884 5883 5882 5882 5882 5882 5882 5881 5881 5881 5880 5881 5881 5881 5881 5882 5883 5884 5885 5885 5886 5887 5888 5889 5890 5891 5891 5892 5893 5893 5894 5894 5894 5895 5895 5895 5895 5895 5895
5888 5887 5887 5886 5885 5885 5884 5884 5884 5884 5884 5883 5883 5883 5883 5883 5882 5883 5883 5884 5885 5886 5887 5887 5888 5889 5890 5890 5891 5892 5893 5893 5894 5895 5895 5895 5896 5896 5896 5896 5896 5896 5896
5890 5889 5889 5888 5887 5887 5887 5886 5886 5885 5885 5885 5885 5885 5885 5885 5885 5885 5886 5886 5887 5888 5888 5889 5890 5891 5891 5892 5893 5894 5894 5895 5895 5896 5896 5897 5897 5897 5897 5897 5897 5897 5897
5891 5891 5891 5890 5890 5889 5889 5889 5888 5887 5887 5887 5887 5887 5887 5887 5887 5888 5888 5888 5889 5890 5890 5891 5892 5893 5893 5894 5895 5895 5896 5897 5897 5897 5897 5898 5898 5898 5899 5899 5898 5898 5898
5893 5893 5892 5892 5891 5891 5891 5890 5890 5890 5889 5889 5889 5889 5889 5889 5890 5890 5890 5891 5891 5892 5893 5894 5894 5895 5895 5896 5896 5897 5897 5898 5898 5899 5899 5899 5899 5900 5900 5900 5899 5899 5899
5895 5894 5894 5894 5893 5893 5892 5892 5892 5892 5891 5891 5891 5891 5891 5891 5892 5892 5893 5893 5894 5894 5895 5896 5896 5897 5897 5897 5898 5898 5899 5899 5899 5900 5900 5900 5900 5900 5900 5900 5900 5900 5900
5897 5896 5896 5895 5895 5895 5894 5894 5894 5893 5893 5893 5893 5893 5893 5893 5894 5894 5895 5895 5896 5896 5897 5898 5898 5898 5898 5899 5899 5899 5900 5900 5900 5900 5900 5901 5901 5901 5901 5901 5900 5900 5900
5898 5898 5897 5897 5897 5896 5896 5895 5895 5895 5895 5895 5895 5895 5895 5895 5895 5896 5896 5897 5897 5898 5899 5899 5899 5899 5900 5900 5900 5900 5901 5901 5901 5901 5901 5901 5901 5901 5901 5901 5901 5900 5900
5900 5899 5899 5898 5898 5898 5897 5897 5897 5897 5896 5896 5896 5896 5896 5897 5897 5897 5898 5898 5899 5899 5900 5900 5900 5900 5901 5901 5901 5901 5901 5901 5901 5901 5901 5901 5901 5901 5901 5901 5901 5900 5900
5902 5901 5901 5900 5899 5899 5898 5898 5898 5897 5897 5897 5897 5897 5898 5898 5898 5899 5899 5900 5900 5900 5901 5901 5901 5901 5901 5902 5902 5902 5902 5902 5902 5902 5901 5901 5901 5901 5901 5900 5900 5900 5899
5904 5903 5902 5901 5901 5900 5899 5899 5899 5898 5898 5898 5898 5898 5899 5899 5900 5900 5900 5901 5901 5901 5901 5902 5902 5902 5902 5902 5902 5902 5902 5902 5902 5902 5901 5901 5901 5900 5900 5900 5899 5899 5899
5906 5905 5904 5903 5902 5901 5901 5900 5900 5900 5899 5899 5899 5899 5899 5900 5900 5901 5901 5901 5902 5902 5902 5902 5902 5902 5903 5903 5902 5902 5902 5902 5902 5901 5901 5900 5900 5900 5900 5899 5898 5898 5897
5908 5907 5906 5904 5903 5902 5902 5901 5901 5900 5900 5900 5900 5900 5900 5900 5901 5901 5901 5902 5902 5902 5902 5903 5903 5903 5903 5903 5902 5902 5902 5901 5901 5901 5900 5900 5899 5899 5899 5898 5897 5897 5896
5910 5908 5907 5906 5904 5903 5903 5902 5902 5901 5901 5901 5900 5900 5900 5901 5901 5901 5902 5902 5902 5902 5902 5903 5903 5903 5903 5902 5902 5902 5901 5901 5900 5900 5900 5899 5898 5898 5897 5896 5896 5895 5895
5911 5910 5909 5907 5906 5905 5904 5903 5902 5902 5902 5901 5901 5901 5901 5901 5901 5901 5901 5901 5902 5902 5902 5902 5902 5902 5902 5902 5901 5901 5901 5900 5900 5899 5898 5898 5897 5896 5896 5895 5894 5894 5893
5913 5912 5910 5909 5907 5906 5905 5904 5904 5903 5902 5902 5901 5901 5901 5901 5901 5901 5901 5901 5901 5902 5902 5902 5902 5901 5901 5901 5900 5900 5899 5899 5898 5898 5897 5896 5895 5895 5894 5893 5892 5891 5891
5915 5913 5912 5910 5909 5907 5906 5905 5905 5904 5903 5902 5902 5901 5901 5901 5901 5901 5901 5901 5901 5901 5901 5901 5901 5900 5900 5899 5899 5899 5898 5897 5897 5896 5895 5894 5894 5892 5892 5891 5890 5889 5888
5916 5915 5913 5911 5910 5908 5907 5906 5906 5905 5904 5903 5902 5902 5901 5901 5900 5900 5900 5900 5900 5900 5900 5900 5899 5899 5899 5898 5898 5897 5897 5897 5895 5894 5893 5892 5891 5890 5889 5888 5887 5886 5885
5918 5916 5914 5913 5911 5909 5908 5907 5906 5905 5904 5903 5902 5901 5901 5900 5900 5899 5899 5899 5899 5899 5899 5898 5898 5898 5897 5897 5896 5895 5895 5894 5893 5892 5891 5890 5889 5888 5886 5885 5884 5883 5882
5920 5918 5916 5914 5912 5911 5909 5908 5907 5905 5904 5903 5902 5901 5900 5900 5899 5898 5898 5898 5898 5897 5897 5897 5896 5896 5895 5894 5894 5893 5892 5891 5890 5889 5888 5887 5885 5884 5883 5882 5880 5879 5878
5921 5919 5917 5915 5914 5912 5910 5909 5907 5905 5904 5902 5901 5900 5899 5899 5898 5898 5897 5897 5896 5896 5895 5894 5894 5893 5893 5892 5891 5890 5889 5888 5887 5886 5885 5884 5882 5881 5879 5878 5876 5875 5874
5922 5920 5918 5916 5914 5913 5911 5909 5907 5905 5904 5902 5901 5899 5898 5898 5897 5896 5896 5895 5895 5894 5893 5892 5892 5891 5890 5889 5888 5887 5886 5885 5884 5883 5881 5880 5878 5877 5875 5874 5873 5872 5870